Kimball, NE

2:08 AM MDT on October 17, 2017 (GMT -0600)
Kimball Municipal-Arraj

Weather History for KIBM - June, 2013

Change the Weather History Date:

Friday, June 14, 2013

  Actual Average (KSNY) Record (KSNY)
Temperature  
Mean Temperature 74 °F -  
Max Temperature 88 °F 80 °F 105 °F (2006)
Min Temperature 61 °F 49 °F 28 °F (1969)
Cooling Degree Days 10    
Growing Degree Days 24 (Base 50)    
Moisture  
Dew Point 45 °F    
Average Humidity 40    
Maximum Humidity 72    
Minimum Humidity 13    
Precipitation  
Precipitation 0.00 in - - ()
Sea Level Pressure  
Sea Level Pressure 29.96 in    
Wind  
Wind Speed 15 mph (East)    
Max Wind Speed 23 mph    
Max Gust Speed 36 mph    
Visibility 10 miles    
Events Rain , Thunderstorm    
Averages and records for this station are not official NWS values.
T = Trace of Precipitation, MM = Missing Value Source: NWS Daily Summary

Daily Weather History Graph

Daily Weather History Graph

Search for Another Location

Airport or City:

Trip Planner

Search our weather history database for the weather conditions in past years. The results will help you decide how hot, cold, wet, or windy it might be!

Date:

Astronomy

Jun. 14, 2013 Rise Set
Actual Time 6:21 AM CDT 9:28 PM CDT
Civil Twilight 5:47 AM CDT 10:02 PM CDT
Nautical Twilight 5:04 AM CDT 10:45 PM CDT
Astronomical Twilight 4:13 AM CDT 11:37 PM CDT
Moon 12:01 PM CDT (6/14) 12:33 AM CDT (6/14)
Length of Visible Light 16h 15m
Length of Day
15h 07m
Waxing Crescent, 30% of the Moon is Illuminated
Jun 14
Waxing Crescent
Jun 16
First Quarter
Jun 23
Full
Jun 29
Last Quarter
Jul 8
New

Hourly Weather History & Observations

Time (CDT) Temp. Dew Point Humidity Pressure Visibility Wind Dir Wind Speed Gust Speed Precip Events Conditions
12:15 AM 68.2 °F 46.4 °F 46% 29.94 in 10.0 mi SSE 11.5 mph - N/A   Clear
12:35 AM 69.4 °F 44.6 °F 41% 29.94 in 10.0 mi SSE 10.4 mph - N/A   Clear
12:55 AM 69.6 °F 46.2 °F 43% 29.95 in 10.0 mi SSE 19.6 mph 24.2 mph N/A   Clear
1:15 AM 68.7 °F 48.2 °F 48% 29.94 in 10.0 mi SSE 17.3 mph 24.2 mph N/A   Clear
1:35 AM 68.0 °F 48.2 °F 49% 29.94 in 10.0 mi SSE 19.6 mph 24.2 mph N/A   Clear
1:55 AM 67.3 °F 48.4 °F 51% 29.94 in 10.0 mi SSE 17.3 mph 25.3 mph N/A   Clear
2:15 AM 66.2 °F 48.6 °F 53% 29.94 in 10.0 mi SSE 17.3 mph 23.0 mph N/A   Clear
2:35 AM 66.2 °F 48.4 °F 53% 29.93 in 10.0 mi South 18.4 mph 24.2 mph N/A   Clear
2:55 AM 64.9 °F 48.6 °F 55% 29.92 in 10.0 mi South 15.0 mph 23.0 mph N/A   Clear
3:15 AM 65.7 °F 47.3 °F 51% 29.91 in 10.0 mi South 20.7 mph 26.5 mph N/A   Clear
3:35 AM 64.8 °F 47.8 °F 54% 29.92 in 10.0 mi South 19.6 mph 23.0 mph N/A   Clear
3:55 AM 64.8 °F 48.9 °F 56% 29.91 in 10.0 mi South 17.3 mph 24.2 mph N/A   Clear
4:15 AM 65.1 °F 49.5 °F 57% 29.90 in 10.0 mi South 18.4 mph 26.5 mph N/A   Clear
4:35 AM 65.5 °F 50.4 °F 58% 29.90 in 10.0 mi South 17.3 mph 25.3 mph N/A   Clear
4:55 AM 64.2 °F 50.2 °F 60% 29.89 in 10.0 mi South 15.0 mph - N/A   Clear
5:15 AM 63.5 °F 50.9 °F 63% 29.89 in 10.0 mi South 13.8 mph - N/A   Clear
5:35 AM 62.8 °F 51.1 °F 66% 29.89 in 10.0 mi South 13.8 mph - N/A   Clear
5:55 AM 62.6 °F 51.8 °F 68% 29.89 in 10.0 mi South 9.2 mph - N/A   Clear
6:15 AM 62.6 °F 52.5 °F 70% 29.89 in 10.0 mi SSW 9.2 mph - N/A   Clear
6:35 AM 61.7 °F 52.7 °F 72% 29.89 in 10.0 mi SW 9.2 mph - N/A   Clear
6:55 AM 61.9 °F 51.3 °F 68% 29.94 in 10.0 mi West 15.0 mph - N/A   Clear
7:15 AM 62.6 °F 50.2 °F 64% 29.94 in 10.0 mi West 6.9 mph - N/A   Clear
7:35 AM 62.6 °F 50.4 °F 64% 29.94 in 10.0 mi West 9.2 mph - N/A   Clear
7:55 AM 63.7 °F 49.1 °F 59% 29.96 in 10.0 mi WNW 10.4 mph - N/A   Clear
8:15 AM 66.4 °F 44.8 °F 46% 29.96 in 10.0 mi NW 10.4 mph 19.6 mph N/A   Clear
8:35 AM 69.1 °F 36.3 °F 30% 29.95 in 10.0 mi NW 20.7 mph 26.5 mph N/A   Clear
8:55 AM 68.4 °F 41.5 °F 38% 29.96 in 10.0 mi NW 23.0 mph 32.2 mph N/A   Clear
9:15 AM 67.3 °F 47.7 °F 49% 29.98 in 10.0 mi NNW 23.0 mph 33.4 mph N/A   Clear
9:35 AM 66.2 °F 48.4 °F 53% 29.98 in 10.0 mi NNW 20.7 mph 32.2 mph N/A   Clear
9:55 AM 67.1 °F 46.9 °F 48% 29.99 in 10.0 mi NNW 21.9 mph 35.7 mph N/A   Clear
10:15 AM 68.0 °F 45.0 °F 43% 29.99 in 10.0 mi NNW 20.7 mph 32.2 mph N/A   Clear
10:35 AM 70.0 °F 44.8 °F 40% 29.98 in 10.0 mi NW 18.4 mph 28.8 mph N/A   Clear
10:55 AM 71.2 °F 43.5 °F 37% 29.98 in 10.0 mi NW 23.0 mph 27.6 mph N/A   Clear
11:15 AM 73.9 °F 44.2 °F 35% 29.98 in 10.0 mi NW 18.4 mph 25.3 mph N/A   Clear
11:35 AM 77.2 °F 42.1 °F 29% 29.97 in 10.0 mi NNW 20.7 mph 27.6 mph N/A   Clear
11:55 AM 80.2 °F 40.3 °F 24% 29.97 in 10.0 mi NW 20.7 mph 27.6 mph N/A   Clear
12:15 PM 78.8 °F 39.6 °F 25% 29.97 in 10.0 mi NNW 20.7 mph 28.8 mph N/A   Clear
12:35 PM 79.2 °F 38.8 °F 24% 29.98 in 10.0 mi NW 20.7 mph 32.2 mph N/A   Clear
12:55 PM 82.8 °F 35.2 °F 18% 29.98 in 10.0 mi NNW 19.6 mph 29.9 mph N/A   Clear
1:15 PM 84.2 °F 35.1 °F 17% 29.98 in 10.0 mi NNW 20.7 mph 27.6 mph N/A   Clear
1:35 PM 84.9 °F 34.2 °F 16% 30.00 in 10.0 mi North 13.8 mph 23.0 mph N/A   Clear
1:55 PM 85.8 °F 34.2 °F 16% 30.00 in 10.0 mi NNE 11.5 mph 21.9 mph N/A   Clear
2:15 PM 88.0 °F 31.1 °F 13% 29.99 in 10.0 mi North 12.7 mph 21.9 mph N/A   Clear
2:35 PM 88.2 °F 30.4 °F 13% 29.99 in 10.0 mi NNE 11.5 mph 23.0 mph N/A   Clear
2:55 PM 88.0 °F 31.6 °F 13% 29.99 in 10.0 mi NNE 13.8 mph - N/A   Clear
3:15 PM 87.8 °F 31.6 °F 13% 29.98 in 10.0 mi NNE 8.1 mph 19.6 mph N/A   Clear
3:35 PM 88.2 °F 31.6 °F 13% 29.97 in 10.0 mi North 9.2 mph 17.3 mph N/A   Clear
3:55 PM 87.3 °F 41.2 °F 20% 29.97 in 10.0 mi ESE 18.4 mph 24.2 mph N/A   Clear
4:15 PM 86.7 °F 41.2 °F 20% 29.96 in 10.0 mi East 17.3 mph 21.9 mph N/A   Clear
4:35 PM 86.2 °F 39.7 °F 19% 29.96 in 10.0 mi ESE 17.3 mph 24.2 mph N/A   Clear
4:55 PM 86.4 °F 39.4 °F 19% 29.95 in 10.0 mi East 17.3 mph 20.7 mph N/A   Clear
5:15 PM 86.9 °F 38.7 °F 18% 29.94 in 10.0 mi East 15.0 mph 21.9 mph N/A   Clear
5:35 PM 86.9 °F 37.8 °F 18% 29.94 in 10.0 mi East 15.0 mph 26.5 mph N/A   Clear
5:55 PM 85.8 °F 41.0 °F 21% 29.93 in 10.0 mi East 13.8 mph 18.4 mph N/A   Clear
6:15 PM 85.6 °F 40.6 °F 20% 29.94 in 10.0 mi East 15.0 mph 19.6 mph N/A   Clear
6:35 PM 84.9 °F 42.6 °F 23% 29.94 in 10.0 mi East 10.4 mph 20.7 mph N/A   Clear
6:55 PM 84.6 °F 43.9 °F 24% 29.95 in 10.0 mi East 11.5 mph - N/A   Clear
7:15 PM 81.7 °F 44.1 °F 26% 29.95 in 10.0 mi East 13.8 mph 18.4 mph N/A   Clear
7:35 PM 80.6 °F 46.6 °F 30% 29.96 in 10.0 mi ESE 11.5 mph - N/A   Clear
7:55 PM 79.2 °F 47.1 °F 32% 29.97 in 10.0 mi ESE 13.8 mph 17.3 mph N/A   Clear
8:15 PM 78.4 °F 47.3 °F 33% 29.99 in 10.0 mi SE 11.5 mph 18.4 mph N/A   Clear
8:35 PM 77.7 °F 48.0 °F 35% 30.01 in 10.0 mi North 12.7 mph 17.3 mph N/A   Scattered Clouds
8:55 PM 74.7 °F 49.3 °F 41% 30.00 in 10.0 mi ENE 12.7 mph 20.7 mph N/A Rain Light Rain
9:15 PM 71.4 °F 53.1 °F 52% 29.99 in 10.0 mi NE 6.9 mph - N/A   Clear
9:35 PM 70.9 °F 53.4 °F 54% 30.00 in 10.0 mi East 5.8 mph - N/A   Clear
9:55 PM 72.9 °F 52.2 °F 48% 30.01 in 10.0 mi Calm Calm - N/A   Scattered Clouds
10:15 PM 72.7 °F 52.0 °F 48% 30.01 in 10.0 mi ESE 4.6 mph - N/A   Mostly Cloudy
10:35 PM 71.8 °F 52.0 °F 50% 30.02 in 10.0 mi ENE 5.8 mph - N/A   Scattered Clouds
10:55 PM 70.9 °F 52.9 °F 53% 30.01 in 10.0 mi East 6.9 mph - N/A   Scattered Clouds
11:15 PM 70.9 °F 52.9 °F 53% 30.02 in 10.0 mi East 8.1 mph - N/A Rain , Thunderstorm Light Thunderstorms and Rain
11:35 PM 69.3 °F 54.5 °F 59% 30.04 in 10.0 mi South 16.1 mph 25.3 mph N/A Rain , Thunderstorm Light Thunderstorms and Rain
11:55 PM 68.5 °F 52.2 °F 56% 30.05 in 10.0 mi NNW 12.7 mph 16.1 mph N/A Rain , Thunderstorm Light Thunderstorms and Rain